Simultaneous Nadir Overpasses (SNOs) Predictions

Prediction of SNOs between GOES-15 and METOP-A Satellite Orbit:

Table of predicted SNOs for the next 14.0 days since TLE Epoch: 10/15/2017
Index Date Time (GOES-15) GOES-15 Lat,Lon METOP-A Lat,Lon Distance(km) Time Diff (sec)
1 10/16/2017 06:41:00 0.27,-135.26 -0.36,-138.06 320.04 80
2 10/17/2017 06:17:40 0.27,-135.24 0.75,-133.07 247.01 80
3 10/18/2017 18:36:30 -0.27,-135.26 0.27,-137.63 270.81 80
4 10/19/2017 18:18:30 -0.27,-135.24 -0.85,-132.63 296.76 80
5 10/21/2017 06:37:28 0.27,-135.16 -0.19,-137.23 235.18 80
6 10/22/2017 06:14:07 0.27,-135.14 0.93,-132.23 331.28 80
7 10/23/2017 18:32:58 -0.27,-135.14 0.09,-136.79 188.18 80
8 10/24/2017 18:14:57 -0.26,-135.11 -1.03,-131.80 378.68 80
9 10/26/2017 06:33:55 0.26,-135.03 -0.06,-136.38 153.64 80
10 10/27/2017 06:10:34 0.26,-135.00 1.05,-131.38 412.05 80
11 10/28/2017 18:29:24 -0.26,-134.99 -0.05,-135.94 109.24 80




NCC Satellite Simultaneous Nadir Overpasses (SNOs) Prediction Service
